Private Wetterstation Wechselburg
Wetterdaten: Sonntag, 11.03.2018
Datum Zeit Temp. +2m Bodentemp. Temp.+5cm Temp. Wind Windchill X Diff Temp. Feuchte +2m Feuchte +5cm Luftdruck Regen Wind Richtung Richtung Sonnenschein Taupunkt Windchill Windben
11.03.2018 00:00 9,1 C 2,5 C 6,6 C 8,8 C 8,1 C 0,0 C 80 % 85 % 1006,3 hPa 0,0 l/m 0,2 km/h (0 Bft) S 180 0 min 5,8 C 8,1 C 1,6 km/h (1 Bft)
11.03.2018 00:05 8,9 C 2,5 C 6,4 C 8,6 C 8,0 C 0,0 C 80 % 86 % 1006,3 hPa 0,0 l/m 0,3 km/h (0 Bft) S-SW 202 0 min 5,6 C 8,0 C 0,0 km/h (0 Bft)
11.03.2018 00:10 8,7 C 2,5 C 6,3 C 8,4 C 7,8 C 0,0 C 80 % 86 % 1006,3 hPa 0,0 l/m 0,3 km/h (0 Bft) O-SO 112 0 min 5,4 C 7,8 C 0,0 km/h (0 Bft)
11.03.2018 00:15 8,6 C 2,5 C 6,3 C 8,3 C 7,7 C 0,0 C 81 % 87 % 1006,2 hPa 0,0 l/m 0,2 km/h (0 Bft) S 180 0 min 5,5 C 7,7 C 0,0 km/h (0 Bft)
11.03.2018 00:20 8,7 C 2,5 C 6,7 C 8,3 C 7,6 C 0,0 C 81 % 88 % 1006,2 hPa 0,0 l/m 0,2 km/h (0 Bft) SO 135 0 min 5,6 C 7,6 C 0,0 km/h (0 Bft)
11.03.2018 00:25 8,6 C 2,4 C 6,8 C 8,3 C 7,8 C 0,0 C 82 % 88 % 1006,2 hPa 0,0 l/m 0,5 km/h (0 Bft) S-SW 202 0 min 5,7 C 7,8 C 3,9 km/h (1 Bft)
11.03.2018 00:30 8,7 C 2,5 C 6,7 C 8,4 C 7,8 C 0,0 C 81 % 88 % 1006,2 hPa 0,0 l/m 0,8 km/h (0 Bft) S 180 0 min 5,6 C 7,8 C 0,0 km/h (0 Bft)
11.03.2018 00:35 8,5 C 2,5 C 6,5 C 8,3 C 7,8 C 0,0 C 81 % 87 % 1006,2 hPa 0,0 l/m 0,6 km/h (0 Bft) S 180 0 min 5,4 C 7,8 C 4,3 km/h (1 Bft)
11.03.2018 00:40 8,5 C 2,5 C 6,6 C 8,3 C 7,9 C 0,0 C 82 % 88 % 1006,2 hPa 0,0 l/m 0,6 km/h (0 Bft) SW 225 0 min 5,6 C 7,9 C 0,0 km/h (0 Bft)
11.03.2018 00:45 8,4 C 2,5 C 6,8 C 8,3 C 8,0 C 0,0 C 82 % 89 % 1006,2 hPa 0,0 l/m 0,5 km/h (0 Bft) SW 225 0 min 5,5 C 8,0 C 0,0 km/h (0 Bft)
11.03.2018 00:50 8,4 C 2,5 C 7,0 C 8,3 C 8,1 C 0,0 C 82 % 89 % 1006,2 hPa 0,0 l/m 0,0 km/h (0 Bft) SO 135 0 min 5,5 C 8,1 C 0,0 km/h (0 Bft)
11.03.2018 00:55 8,4 C 2,5 C 6,9 C 8,3 C 8,1 C 0,0 C 82 % 88 % 1006,2 hPa 0,0 l/m 0,0 km/h (0 Bft) SO 135 0 min 5,5 C 8,1 C 0,0 km/h (0 Bft)
11.03.2018 01:00 8,4 C 2,5 C 6,8 C 8,3 C 8,2 C 0,0 C 83 % 88 % 1006,2 hPa 0,0 l/m 0,0 km/h (0 Bft) SO 135 0 min 5,7 C 8,2 C 0,0 km/h (0 Bft)
11.03.2018 01:05 8,4 C 2,5 C 6,6 C 8,3 C 8,1 C 0,0 C 82 % 88 % 1006,2 hPa 0,0 l/m 0,0 km/h (0 Bft) SW 225 0 min 5,5 C 8,1 C 0,0 km/h (0 Bft)
11.03.2018 01:10 8,3 C 2,5 C 6,4 C 8,2 C 8,0 C 0,0 C 82 % 88 % 1006,2 hPa 0,0 l/m 0,0 km/h (0 Bft) SW 225 0 min 5,4 C 8,0 C 0,0 km/h (0 Bft)
11.03.2018 01:15 8,1 C 2,5 C 6,5 C 8,0 C 7,7 C 0,0 C 82 % 88 % 1005,8 hPa 0,0 l/m 0,0 km/h (0 Bft) SW 225 0 min 5,2 C 7,7 C 0,0 km/h (0 Bft)
11.03.2018 01:20 8,0 C 2,5 C 6,3 C 7,8 C 7,5 C 0,0 C 82 % 88 % 1005,8 hPa 0,0 l/m 0,0 km/h (0 Bft) SW 225 0 min 5,1 C 7,5 C 0,0 km/h (0 Bft)
11.03.2018 01:25 7,9 C 2,5 C 6,0 C 7,7 C 7,4 C 0,0 C 82 % 88 % 1005,8 hPa 0,0 l/m 0,0 km/h (0 Bft) SW 225 0 min 5,0 C 7,4 C 0,0 km/h (0 Bft)
11.03.2018 01:30 7,7 C 2,5 C 5,9 C 7,6 C 7,3 C 0,0 C 82 % 88 % 1005,8 hPa 0,0 l/m 0,0 km/h (0 Bft) SW 225 0 min 4,8 C 7,3 C 0,0 km/h (0 Bft)
11.03.2018 01:35 7,6 C 2,5 C 5,9 C 7,5 C 7,3 C 0,0 C 82 % 88 % 1006,3 hPa 0,0 l/m 0,0 km/h (0 Bft) SW 225 0 min 4,7 C 7,3 C 0,0 km/h (0 Bft)
11.03.2018 01:40 7,5 C 2,5 C 5,7 C 7,4 C 7,1 C 0,0 C 83 % 88 % 1006,3 hPa 0,0 l/m 0,0 km/h (0 Bft) SW 225 0 min 4,8 C 7,1 C 0,0 km/h (0 Bft)
11.03.2018 01:45 7,2 C 2,5 C 5,6 C 7,1 C 6,8 C 0,0 C 83 % 89 % 1006,3 hPa 0,0 l/m 0,0 km/h (0 Bft) SW 225 0 min 4,5 C 6,8 C 0,0 km/h (0 Bft)
11.03.2018 01:50 7,1 C 2,5 C 5,6 C 7,0 C 6,7 C 0,0 C 83 % 89 % 1006,3 hPa 0,0 l/m 0,0 km/h (0 Bft) SW 225 0 min 4,4 C 6,7 C 0,0 km/h (0 Bft)
11.03.2018 01:55 7,2 C 2,5 C 5,5 C 7,0 C 6,5 C 0,0 C 83 % 89 % 1005,6 hPa 0,0 l/m 0,0 km/h (0 Bft) SW 225 0 min 4,5 C 6,5 C 0,0 km/h (0 Bft)
11.03.2018 02:00 7,1 C 2,5 C 5,5 C 6,9 C 6,5 C 0,0 C 83 % 89 % 1005,6 hPa 0,0 l/m 0,0 km/h (0 Bft) SW 225 0 min 4,4 C 6,5 C 0,0 km/h (0 Bft)
11.03.2018 02:05 6,9 C 2,6 C 5,3 C 6,7 C 6,3 C 0,0 C 83 % 89 % 1005,6 hPa 0,0 l/m 0,0 km/h (0 Bft) SW 225 0 min 4,2 C 6,3 C 0,0 km/h (0 Bft)
11.03.2018 02:10 6,8 C 2,6 C 5,3 C 6,6 C 6,3 C 0,0 C 83 % 89 % 1005,6 hPa 0,0 l/m 0,0 km/h (0 Bft) SO 135 0 min 4,1 C 6,3 C 0,0 km/h (0 Bft)
11.03.2018 02:15 6,7 C 2,6 C 5,1 C 6,5 C 6,0 C 0,0 C 84 % 89 % 1005,6 hPa 0,0 l/m 0,0 km/h (0 Bft) SO 135 0 min 4,2 C 6,0 C 0,0 km/h (0 Bft)
11.03.2018 02:20 6,5 C 2,6 C 4,9 C 6,3 C 5,9 C 0,0 C 84 % 89 % 1005,6 hPa 0,0 l/m 0,0 km/h (0 Bft) SO 135 0 min 4,0 C 5,9 C 0,0 km/h (0 Bft)
11.03.2018 02:25 6,4 C 2,8 C 4,7 C 6,2 C 5,7 C 0,0 C 83 % 89 % 1005,6 hPa 0,0 l/m 0,0 km/h (0 Bft) SO 135 0 min 3,7 C 5,7 C 0,0 km/h (0 Bft)
11.03.2018 02:30 6,3 C 2,6 C 4,5 C 6,1 C 5,6 C 0,0 C 84 % 89 % 1005,6 hPa 0,0 l/m 0,0 km/h (0 Bft) S 180 0 min 3,8 C 5,6 C 0,0 km/h (0 Bft)
11.03.2018 02:35 6,2 C 2,6 C 4,5 C 6,0 C 5,5 C 0,0 C 84 % 89 % 1005,6 hPa 0,0 l/m 0,0 km/h (0 Bft) SO 135 0 min 3,7 C 5,5 C 0,0 km/h (0 Bft)
11.03.2018 02:40 5,9 C 2,5 C 4,2 C 5,7 C 5,3 C 0,0 C 84 % 89 % 1005,6 hPa 0,0 l/m 0,0 km/h (0 Bft) SO 135 0 min 3,4 C 5,3 C 0,0 km/h (0 Bft)
11.03.2018 02:45 5,8 C 2,6 C 4,0 C 5,6 C 5,1 C 0,0 C 84 % 89 % 1005,6 hPa 0,0 l/m 0,0 km/h (0 Bft) SO 135 0 min 3,3 C 5,1 C 0,0 km/h (0 Bft)
11.03.2018 02:50 5,7 C 2,7 C 4,1 C 5,5 C 5,0 C 0,0 C 84 % 89 % 1005,6 hPa 0,0 l/m 0,0 km/h (0 Bft) SW 225 0 min 3,2 C 5,0 C 0,0 km/h (0 Bft)
11.03.2018 02:55 5,6 C 2,7 C 4,1 C 5,3 C 4,8 C 0,0 C 84 % 89 % 1005,0 hPa 0,0 l/m 0,0 km/h (0 Bft) SW 225 0 min 3,1 C 4,8 C 0,0 km/h (0 Bft)
11.03.2018 03:00 5,5 C 2,6 C 3,9 C 5,2 C 4,7 C 0,0 C 84 % 89 % 1005,0 hPa 0,0 l/m 0,0 km/h (0 Bft) SW 225 0 min 3,0 C 4,7 C 0,0 km/h (0 Bft)
11.03.2018 03:05 5,3 C 2,7 C 3,9 C 5,0 C 4,4 C 0,0 C 84 % 89 % 1005,0 hPa 0,0 l/m 0,0 km/h (0 Bft) SW 225 0 min 2,8 C 4,4 C 0,0 km/h (0 Bft)
11.03.2018 03:10 5,2 C 2,7 C 3,8 C 4,9 C 4,3 C 0,0 C 84 % 89 % 1005,0 hPa 0,0 l/m 0,0 km/h (0 Bft) SW 225 0 min 2,7 C 4,3 C 0,0 km/h (0 Bft)
11.03.2018 03:15 5,2 C 2,7 C 3,7 C 4,9 C 4,3 C 0,0 C 85 % 89 % 1005,2 hPa 0,0 l/m 0,0 km/h (0 Bft) SW 225 0 min 2,9 C 4,3 C 0,0 km/h (0 Bft)
11.03.2018 03:20 5,1 C 2,7 C 3,5 C 4,8 C 4,1 C 0,0 C 85 % 89 % 1005,2 hPa 0,0 l/m 0,0 km/h (0 Bft) SW 225 0 min 2,8 C 4,1 C 0,0 km/h (0 Bft)
11.03.2018 03:25 4,9 C 2,7 C 3,5 C 4,6 C 3,9 C 0,0 C 85 % 90 % 1005,2 hPa 0,0 l/m 0,5 km/h (0 Bft) SW 225 0 min 2,6 C 3,9 C 0,0 km/h (0 Bft)
11.03.2018 03:30 4,8 C 2,7 C 3,5 C 4,4 C 3,7 C 0,0 C 85 % 89 % 1005,2 hPa 0,0 l/m 0,6 km/h (0 Bft) SW 225 0 min 2,5 C 3,7 C 1,8 km/h (1 Bft)
11.03.2018 03:35 4,7 C 2,7 C 3,3 C 4,3 C 3,6 C 0,0 C 85 % 89 % 1004,8 hPa 0,0 l/m 0,8 km/h (0 Bft) SW 225 0 min 2,4 C 3,6 C 0,0 km/h (0 Bft)
11.03.2018 03:40 4,4 C 2,7 C 3,2 C 4,1 C 3,4 C 0,0 C 85 % 89 % 1004,8 hPa 0,0 l/m 0,6 km/h (0 Bft) SW 225 0 min 2,1 C 3,4 C 0,0 km/h (0 Bft)
11.03.2018 03:45 4,4 C 2,8 C 2,9 C 4,1 C 3,4 C 0,0 C 85 % 89 % 1004,8 hPa 0,0 l/m 0,0 km/h (0 Bft) S 180 0 min 2,1 C 3,4 C 0,0 km/h (0 Bft)
11.03.2018 03:50 4,3 C 2,8 C 2,8 C 4,0 C 3,4 C 0,0 C 85 % 89 % 1004,8 hPa 0,0 l/m 0,0 km/h (0 Bft) S 180 0 min 2,0 C 3,4 C 0,0 km/h (0 Bft)
11.03.2018 03:55 4,2 C 2,8 C 2,7 C 3,9 C 3,4 C 0,0 C 85 % 89 % 1004,8 hPa 0,0 l/m 0,0 km/h (0 Bft) S 180 0 min 1,9 C 3,4 C 0,0 km/h (0 Bft)
11.03.2018 04:00 4,0 C 2,8 C 2,7 C 3,8 C 3,5 C 0,0 C 85 % 89 % 1004,8 hPa 0,0 l/m 0,0 km/h (0 Bft) SW 225 0 min 1,7 C 3,5 C 0,0 km/h (0 Bft)
11.03.2018 04:05 3,9 C 2,8 C 2,7 C 3,7 C 3,4 C 0,0 C 85 % 89 % 1004,8 hPa 0,0 l/m 0,0 km/h (0 Bft) SW 225 0 min 1,6 C 3,4 C 0,0 km/h (0 Bft)
11.03.2018 04:10 3,8 C 2,7 C 2,5 C 3,6 C 3,3 C 0,0 C 85 % 89 % 1004,8 hPa 0,0 l/m 0,0 km/h (0 Bft) SW 225 0 min 1,5 C 3,3 C 0,0 km/h (0 Bft)
11.03.2018 04:15 3,8 C 2,8 C 2,5 C 3,6 C 3,3 C 0,0 C 85 % 89 % 1004,6 hPa 0,0 l/m 0,0 km/h (0 Bft) SW 225 0 min 1,5 C 3,3 C 0,0 km/h (0 Bft)
11.03.2018 04:20 3,7 C 2,8 C 2,4 C 3,6 C 3,4 C 0,0 C 85 % 89 % 1004,6 hPa 0,0 l/m 0,0 km/h (0 Bft) SO 135 0 min 1,4 C 3,4 C 0,0 km/h (0 Bft)
11.03.2018 04:25 3,7 C 2,8 C 2,5 C 3,7 C 3,6 C 0,0 C 85 % 89 % 1004,6 hPa 0,0 l/m 0,0 km/h (0 Bft) SO 135 0 min 1,4 C 3,6 C 0,0 km/h (0 Bft)
11.03.2018 04:30 3,6 C 2,8 C 2,4 C 3,6 C 3,5 C 0,0 C 85 % 89 % 1004,6 hPa 0,0 l/m 0,0 km/h (0 Bft) SW 225 0 min 1,3 C 3,5 C 0,0 km/h (0 Bft)
11.03.2018 04:35 3,6 C 2,8 C 2,3 C 3,5 C 3,3 C 0,0 C 85 % 89 % 1004,6 hPa 0,0 l/m 0,0 km/h (0 Bft) SW 225 0 min 1,3 C 3,3 C 0,0 km/h (0 Bft)
11.03.2018 04:40 3,5 C 2,7 C 2,4 C 3,4 C 3,3 C 0,0 C 85 % 89 % 1004,6 hPa 0,0 l/m 0,0 km/h (0 Bft) SW 225 0 min 1,2 C 3,3 C 0,0 km/h (0 Bft)
11.03.2018 04:45 3,5 C 2,7 C 2,3 C 3,3 C 2,9 C 0,0 C 86 % 89 % 1004,6 hPa 0,0 l/m 0,0 km/h (0 Bft) SW 225 0 min 1,4 C 2,9 C 0,0 km/h (0 Bft)
11.03.2018 04:50 3,3 C 2,7 C 2,1 C 3,1 C 2,6 C 0,0 C 85 % 88 % 1004,6 hPa 0,0 l/m 0,0 km/h (0 Bft) SW 225 0 min 1,0 C 2,6 C 0,0 km/h (0 Bft)
11.03.2018 04:55 3,3 C 2,7 C 2,0 C 3,0 C 2,5 C 0,0 C 85 % 88 % 1004,1 hPa 0,0 l/m 0,0 km/h (0 Bft) SW 225 0 min 1,0 C 2,5 C 0,0 km/h (0 Bft)
11.03.2018 05:00 3,0 C 2,7 C 1,9 C 2,7 C 2,2 C 0,0 C 85 % 88 % 1004,1 hPa 0,0 l/m 0,0 km/h (0 Bft) SW 225 0 min 0,7 C 2,2 C 0,0 km/h (0 Bft)
11.03.2018 05:05 2,9 C 2,7 C 1,7 C 2,6 C 2,1 C 0,0 C 85 % 88 % 1004,1 hPa 0,0 l/m 0,0 km/h (0 Bft) S-SW 202 0 min 0,6 C 2,1 C 0,0 km/h (0 Bft)
11.03.2018 05:10 2,9 C 2,6 C 1,6 C 2,6 C 2,0 C 0,0 C 85 % 88 % 1004,1 hPa 0,0 l/m 0,0 km/h (0 Bft) SW 225 0 min 0,6 C 2,0 C 0,0 km/h (0 Bft)
11.03.2018 05:15 2,7 C 2,7 C 1,6 C 2,4 C 1,9 C 0,0 C 85 % 88 % 1003,9 hPa 0,0 l/m 0,0 km/h (0 Bft) SW 225 0 min 0,4 C 1,9 C 0,0 km/h (0 Bft)
11.03.2018 05:20 2,7 C 2,7 C 1,4 C 2,4 C 1,9 C 0,0 C 85 % 88 % 1003,9 hPa 0,0 l/m 0,0 km/h (0 Bft) S-SW 202 0 min 0,4 C 1,9 C 0,0 km/h (0 Bft)
11.03.2018 05:25 2,5 C 2,6 C 1,5 C 2,3 C 1,9 C 0,0 C 86 % 88 % 1003,9 hPa 0,0 l/m 0,0 km/h (0 Bft) SW 225 0 min 0,4 C 1,9 C 0,0 km/h (0 Bft)
11.03.2018 05:30 2,4 C 2,6 C 1,6 C 2,2 C 1,8 C 0,0 C 86 % 88 % 1003,9 hPa 0,0 l/m 0,0 km/h (0 Bft) SW 225 0 min 0,3 C 1,8 C 0,0 km/h (0 Bft)
11.03.2018 05:35 2,4 C 2,7 C 1,6 C 2,2 C 1,7 C 0,0 C 86 % 88 % 1004,0 hPa 0,0 l/m 0,0 km/h (0 Bft) SW 225 0 min 0,3 C 1,7 C 0,0 km/h (0 Bft)
11.03.2018 05:40 2,3 C 2,7 C 1,7 C 2,2 C 2,0 C 0,0 C 86 % 87 % 1004,0 hPa 0,0 l/m 0,0 km/h (0 Bft) SW 225 0 min 0,2 C 2,0 C 0,0 km/h (0 Bft)
11.03.2018 05:45 2,3 C 2,7 C 2,1 C 2,5 C 2,5 C 0,2 C 86 % 86 % 1004,0 hPa 0,0 l/m 0,0 km/h (0 Bft) S-SW 202 0 min 0,2 C 2,5 C 0,0 km/h (0 Bft)
11.03.2018 05:50 2,3 C 2,6 C 2,3 C 2,8 C 2,8 C 0,5 C 86 % 86 % 1004,0 hPa 0,0 l/m 0,0 km/h (0 Bft) S-SW 202 0 min 0,2 C 2,8 C 0,0 km/h (0 Bft)
11.03.2018 05:55 2,3 C 2,7 C 2,4 C 3,2 C 3,2 C 0,9 C 86 % 86 % 1003,9 hPa 0,0 l/m 0,0 km/h (0 Bft) S-SW 202 0 min 0,2 C 3,2 C 0,0 km/h (0 Bft)
11.03.2018 06:00 2,3 C 2,6 C 2,6 C 3,3 C 3,3 C 1,0 C 86 % 86 % 1003,9 hPa 0,0 l/m 0,0 km/h (0 Bft) S-SW 202 0 min 0,2 C 3,3 C 0,0 km/h (0 Bft)
11.03.2018 06:05 2,4 C 2,6 C 2,7 C 3,5 C 3,5 C 1,1 C 86 % 86 % 1003,9 hPa 0,0 l/m 0,0 km/h (0 Bft) SW 225 0 min 0,3 C 3,5 C 0,0 km/h (0 Bft)
11.03.2018 06:10 2,4 C 2,6 C 2,8 C 3,6 C 3,6 C 1,2 C 86 % 86 % 1003,9 hPa 0,0 l/m 0,0 km/h (0 Bft) SW 225 0 min 0,3 C 3,6 C 0,0 km/h (0 Bft)
11.03.2018 06:15 2,4 C 2,6 C 2,8 C 3,5 C 3,5 C 1,1 C 86 % 86 % 1003,9 hPa 0,0 l/m 0,0 km/h (0 Bft) S-SW 202 0 min 0,3 C 3,5 C 0,0 km/h (0 Bft)
11.03.2018 06:20 2,3 C 2,6 C 2,9 C 3,3 C 3,3 C 1,0 C 86 % 86 % 1003,9 hPa 0,0 l/m 0,5 km/h (0 Bft) SW 225 0 min 0,2 C 3,3 C 0,0 km/h (0 Bft)
11.03.2018 06:25 2,2 C 2,5 C 2,8 C 3,2 C 3,2 C 1,0 C 86 % 86 % 1003,9 hPa 0,0 l/m 0,5 km/h (0 Bft) S-SW 202 0 min 0,1 C 3,2 C 0,0 km/h (0 Bft)
11.03.2018 06:30 2,2 C 2,6 C 2,9 C 3,2 C 3,2 C 1,0 C 86 % 86 % 1003,9 hPa 0,0 l/m 0,0 km/h (0 Bft) S-SW 202 0 min 0,1 C 3,2 C 0,0 km/h (0 Bft)
11.03.2018 06:35 2,2 C 2,5 C 2,9 C 3,3 C 3,3 C 1,1 C 86 % 86 % 1003,8 hPa 0,0 l/m 0,3 km/h (0 Bft) SW 225 0 min 0,1 C 3,3 C 1,8 km/h (1 Bft)
11.03.2018 06:40 2,2 C 2,5 C 3,1 C 3,3 C 3,3 C 1,1 C 86 % 86 % 1003,8 hPa 0,0 l/m 0,3 km/h (0 Bft) SW 225 0 min 0,1 C 3,3 C 0,0 km/h (0 Bft)
11.03.2018 06:45 2,3 C 2,5 C 3,1 C 3,3 C 3,3 C 1,0 C 86 % 86 % 1003,8 hPa 0,0 l/m 0,2 km/h (0 Bft) SW 225 5 min 0,2 C 3,3 C 0,0 km/h (0 Bft)
11.03.2018 06:50 2,3 C 2,5 C 3,1 C 3,3 C 3,3 C 1,0 C 86 % 86 % 1003,8 hPa 0,0 l/m 0,0 km/h (0 Bft) SW 225 5 min 0,2 C 3,3 C 0,0 km/h (0 Bft)
11.03.2018 06:55 2,3 C 2,5 C 3,2 C 3,6 C 3,6 C 1,3 C 86 % 86 % 1003,6 hPa 0,0 l/m 0,0 km/h (0 Bft) SW 225 5 min 0,2 C 3,6 C 0,0 km/h (0 Bft)
11.03.2018 07:00 2,4 C 2,5 C 3,3 C 3,7 C 3,7 C 1,3 C 86 % 86 % 1003,6 hPa 0,0 l/m 0,0 km/h (0 Bft) SW 225 5 min 0,3 C 3,7 C 0,0 km/h (0 Bft)
11.03.2018 07:05 2,4 C 2,6 C 3,5 C 3,7 C 3,7 C 1,3 C 87 % 85 % 1003,6 hPa 0,0 l/m 0,0 km/h (0 Bft) SW 225 5 min 0,5 C 3,7 C 0,0 km/h (0 Bft)
11.03.2018 07:10 2,4 C 2,5 C 3,5 C 3,8 C 3,8 C 1,4 C 87 % 85 % 1003,6 hPa 0,0 l/m 0,0 km/h (0 Bft) SW 225 5 min 0,5 C 3,8 C 0,0 km/h (0 Bft)
11.03.2018 07:15 2,5 C 2,6 C 3,7 C 4,1 C 4,1 C 1,6 C 87 % 85 % 1003,6 hPa 0,0 l/m 0,0 km/h (0 Bft) SW 225 5 min 0,6 C 4,1 C 0,0 km/h (0 Bft)
11.03.2018 07:20 2,6 C 2,5 C 3,7 C 4,3 C 4,3 C 1,7 C 87 % 85 % 1003,6 hPa 0,0 l/m 0,0 km/h (0 Bft) SW 225 5 min 0,7 C 4,3 C 0,0 km/h (0 Bft)
11.03.2018 07:25 2,6 C 2,5 C 3,9 C 4,6 C 4,6 C 2,0 C 87 % 85 % 1003,6 hPa 0,0 l/m 0,0 km/h (0 Bft) SW 225 5 min 0,7 C 4,6 C 0,0 km/h (0 Bft)
11.03.2018 07:30 2,7 C 2,5 C 4,0 C 4,8 C 4,8 C 2,1 C 87 % 85 % 1003,6 hPa 0,0 l/m 0,0 km/h (0 Bft) SW 225 5 min 0,8 C 4,8 C 0,0 km/h (0 Bft)
11.03.2018 07:35 2,8 C 2,5 C 4,1 C 5,0 C 5,0 C 2,2 C 87 % 85 % 1003,5 hPa 0,0 l/m 0,0 km/h (0 Bft) SW 225 5 min 0,9 C 5,0 C 0,0 km/h (0 Bft)
11.03.2018 07:40 2,8 C 2,3 C 4,2 C 5,0 C 5,0 C 2,2 C 87 % 85 % 1003,5 hPa 0,0 l/m 0,0 km/h (0 Bft) SW 225 5 min 0,9 C 5,0 C 0,0 km/h (0 Bft)
11.03.2018 07:45 3,0 C 2,5 C 4,4 C 5,3 C 5,3 C 2,3 C 87 % 85 % 1003,5 hPa 0,0 l/m 0,0 km/h (0 Bft) SW 225 5 min 1,1 C 5,3 C 0,0 km/h (0 Bft)
11.03.2018 07:50 3,1 C 2,5 C 4,5 C 5,5 C 5,5 C 2,4 C 87 % 85 % 1003,5 hPa 0,0 l/m 0,0 km/h (0 Bft) SW 225 5 min 1,2 C 5,5 C 0,0 km/h (0 Bft)
11.03.2018 07:55 3,1 C 2,5 C 4,6 C 5,8 C 5,8 C 2,7 C 87 % 85 % 1003,2 hPa 0,0 l/m 0,0 km/h (0 Bft) SW 225 5 min 1,2 C 5,8 C 0,0 km/h (0 Bft)
11.03.2018 08:00 3,3 C 2,5 C 5,1 C 6,0 C 6,0 C 2,7 C 87 % 84 % 1003,2 hPa 0,0 l/m 0,0 km/h (0 Bft) SW 225 5 min 1,3 C 6,0 C 0,0 km/h (0 Bft)
11.03.2018 08:05 3,5 C 2,3 C 5,3 C 6,4 C 6,4 C 2,9 C 87 % 84 % 1003,2 hPa 0,0 l/m 0,0 km/h (0 Bft) SW 225 5 min 1,5 C 6,4 C 0,0 km/h (0 Bft)
11.03.2018 08:10 3,7 C 2,3 C 5,7 C 7,0 C 7,0 C 3,3 C 88 % 84 % 1003,2 hPa 0,0 l/m 0,0 km/h (0 Bft) SW 225 5 min 1,9 C 7,0 C 0,0 km/h (0 Bft)
11.03.2018 08:15 3,9 C 2,2 C 5,5 C 7,3 C 7,3 C 3,4 C 88 % 84 % 1003,8 hPa 0,0 l/m 0,0 km/h (0 Bft) SW 225 5 min 2,1 C 7,3 C 0,0 km/h (0 Bft)
11.03.2018 08:20 3,8 C 2,2 C 5,7 C 7,8 C 7,8 C 4,0 C 88 % 85 % 1003,8 hPa 0,0 l/m 0,0 km/h (0 Bft) S-SW 202 5 min 2,0 C 7,8 C 0,0 km/h (0 Bft)
11.03.2018 08:25 3,9 C 2,2 C 5,9 C 8,1 C 8,1 C 4,2 C 87 % 85 % 1003,8 hPa 0,0 l/m 0,0 km/h (0 Bft) S-SW 202 5 min 1,9 C 8,1 C 0,0 km/h (0 Bft)
11.03.2018 08:30 4,0 C 2,2 C 6,1 C 8,3 C 8,3 C 4,3 C 88 % 85 % 1003,8 hPa 0,0 l/m 0,0 km/h (0 Bft) S 180 5 min 2,2 C 8,3 C 0,0 km/h (0 Bft)
11.03.2018 08:35 4,3 C 2,2 C 6,4 C 8,8 C 8,8 C 4,5 C 87 % 85 % 1003,2 hPa 0,0 l/m 0,0 km/h (0 Bft) SW 225 5 min 2,3 C 8,8 C 0,0 km/h (0 Bft)
11.03.2018 08:40 4,6 C 2,2 C 6,8 C 9,2 C 9,2 C 4,6 C 88 % 85 % 1003,2 hPa 0,0 l/m 0,0 km/h (0 Bft) SW 225 5 min 2,8 C 9,2 C 0,0 km/h (0 Bft)
11.03.2018 08:45 4,8 C 2,2 C 7,5 C 11,0 C 11,0 C 6,2 C 88 % 85 % 1003,2 hPa 0,0 l/m 0,0 km/h (0 Bft) SW 225 5 min 3,0 C 11,0 C 0,0 km/h (0 Bft)
11.03.2018 08:50 5,1 C 2,1 C 7,7 C 11,4 C 11,4 C 6,3 C 88 % 86 % 1003,2 hPa 0,0 l/m 0,0 km/h (0 Bft) SW 225 5 min 3,3 C 11,4 C 0,0 km/h (0 Bft)
11.03.2018 08:55 5,2 C 2,1 C 8,0 C 11,0 C 11,0 C 5,8 C 88 % 86 % 1003,1 hPa 0,0 l/m 0,2 km/h (0 Bft) SW 225 5 min 3,4 C 11,0 C 0,0 km/h (0 Bft)
11.03.2018 09:00 5,3 C 2,2 C 8,1 C 10,5 C 10,5 C 5,2 C 88 % 87 % 1003,1 hPa 0,0 l/m 0,6 km/h (0 Bft) SW 225 5 min 3,5 C 10,5 C 1,6 km/h (1 Bft)
11.03.2018 09:05 5,5 C 2,1 C 8,2 C 11,1 C 11,1 C 5,6 C 88 % 88 % 1003,1 hPa 0,0 l/m 0,5 km/h (0 Bft) SW 225 5 min 3,7 C 11,1 C 0,0 km/h (0 Bft)
11.03.2018 09:10 5,9 C 2,1 C 8,5 C 11,7 C 11,7 C 5,8 C 87 % 88 % 1003,1 hPa 0,0 l/m 0,2 km/h (0 Bft) SW 225 5 min 3,9 C 11,7 C 0,0 km/h (0 Bft)
11.03.2018 09:15 6,0 C 2,1 C 8,6 C 12,4 C 12,4 C 6,4 C 87 % 88 % 1003,1 hPa 0,0 l/m 0,3 km/h (0 Bft) SW 225 5 min 4,0 C 12,4 C 0,0 km/h (0 Bft)
11.03.2018 09:20 6,5 C 2,1 C 9,4 C 12,7 C 12,7 C 6,2 C 88 % 88 % 1003,1 hPa 0,0 l/m 0,3 km/h (0 Bft) SW 225 5 min 4,7 C 12,7 C 0,0 km/h (0 Bft)
11.03.2018 09:25 6,8 C 2,1 C 10,5 C 14,7 C 14,7 C 7,9 C 88 % 88 % 1003,1 hPa 0,0 l/m 0,2 km/h (0 Bft) S 180 5 min 5,0 C 14,7 C 0,0 km/h (0 Bft)
11.03.2018 09:30 7,2 C 2,1 C 11,5 C 15,3 C 15,3 C 8,1 C 87 % 88 % 1003,1 hPa 0,0 l/m 0,6 km/h (0 Bft) S 180 5 min 5,2 C 15,3 C 3,9 km/h (1 Bft)
11.03.2018 09:35 7,7 C 2,1 C 12,4 C 16,3 C 16,3 C 8,6 C 87 % 87 % 1002,7 hPa 0,0 l/m 0,8 km/h (0 Bft) SW 225 5 min 5,7 C 16,3 C 0,0 km/h (0 Bft)
11.03.2018 09:40 8,5 C 2,1 C 13,0 C 16,2 C 16,2 C 7,7 C 87 % 85 % 1002,7 hPa 0,0 l/m 0,8 km/h (0 Bft) O-SO 112 5 min 6,5 C 16,2 C 0,0 km/h (0 Bft)
11.03.2018 09:45 9,1 C 2,1 C 12,3 C 16,8 C 16,8 C 7,7 C 87 % 84 % 1002,7 hPa 0,0 l/m 0,6 km/h (0 Bft) O-SO 112 5 min 7,1 C 16,8 C 1,9 km/h (1 Bft)
11.03.2018 09:50 9,5 C 2,2 C 11,9 C 16,7 C 16,7 C 7,2 C 86 % 84 % 1002,7 hPa 0,0 l/m 0,8 km/h (0 Bft) O-SO 112 5 min 7,3 C 16,7 C 2,3 km/h (1 Bft)
11.03.2018 09:55 10,1 C 2,2 C 11,6 C 15,7 C 15,7 C 5,6 C 86 % 84 % 1002,3 hPa 0,0 l/m 1,3 km/h (1 Bft) S 180 5 min 7,9 C 15,7 C 0,0 km/h (0 Bft)
11.03.2018 10:00 10,9 C 2,2 C 11,5 C 15,6 C 15,6 C 4,7 C 86 % 84 % 1002,3 hPa 0,0 l/m 1,4 km/h (1 Bft) O 90 5 min 8,7 C 15,6 C 2,6 km/h (1 Bft)
11.03.2018 10:05 12,2 C 2,2 C 11,5 C 16,1 C 16,1 C 3,9 C 84 % 84 % 1002,3 hPa 0,0 l/m 1,8 km/h (1 Bft) O-NO 67 5 min 9,6 C 16,1 C 5,0 km/h (1 Bft)
11.03.2018 10:10 12,5 C 2,2 C 11,5 C 16,2 C 16,2 C 3,7 C 84 % 84 % 1002,3 hPa 0,0 l/m 1,8 km/h (1 Bft) O-NO 67 5 min 9,9 C 16,2 C 2,6 km/h (1 Bft)
11.03.2018 10:15 12,9 C 2,2 C 11,5 C 17,4 C 17,4 C 4,5 C 82 % 85 % 1002,4 hPa 0,0 l/m 1,6 km/h (1 Bft) S-SO 157 5 min 9,9 C 17,4 C 0,0 km/h (0 Bft)
11.03.2018 10:20 13,0 C 2,3 C 11,5 C 17,4 C 17,4 C 4,4 C 81 % 84 % 1002,4 hPa 0,0 l/m 1,3 km/h (1 Bft) O 90 5 min 9,8 C 17,4 C 0,0 km/h (0 Bft)
11.03.2018 10:25 13,3 C 2,3 C 11,6 C 16,3 C 16,3 C 3,0 C 79 % 84 % 1002,4 hPa 0,0 l/m 0,8 km/h (0 Bft) S 180 0 min 9,7 C 16,3 C 0,0 km/h (0 Bft)
11.03.2018 10:30 13,3 C 2,3 C 11,7 C 16,0 C 16,0 C 2,7 C 78 % 84 % 1002,4 hPa 0,0 l/m 1,4 km/h (1 Bft) S 180 0 min 9,5 C 16,0 C 7,1 km/h (2 Bft)
11.03.2018 10:35 13,5 C 2,3 C 11,7 C 16,5 C 16,5 C 3,0 C 78 % 84 % 1002,4 hPa 0,0 l/m 1,6 km/h (1 Bft) S-SW 202 0 min 9,7 C 16,5 C 0,0 km/h (0 Bft)
11.03.2018 10:40 13,7 C 2,3 C 11,9 C 16,5 C 16,5 C 2,8 C 77 % 83 % 1002,4 hPa 0,0 l/m 1,9 km/h (1 Bft) S 180 0 min 9,7 C 16,5 C 2,7 km/h (1 Bft)
11.03.2018 10:45 14,1 C 2,4 C 12,3 C 16,9 C 16,9 C 2,8 C 75 % 83 % 1002,4 hPa 0,0 l/m 2,1 km/h (1 Bft) O-SO 112 0 min 9,7 C 16,9 C 7,9 km/h (2 Bft)
11.03.2018 10:50 14,2 C 2,4 C 12,4 C 17,4 C 17,4 C 3,2 C 75 % 83 % 1002,4 hPa 0,0 l/m 1,8 km/h (1 Bft) O-SO 112 0 min 9,8 C 17,4 C 0,0 km/h (0 Bft)
11.03.2018 10:55 14,5 C 2,4 C 12,4 C 17,3 C 17,3 C 2,8 C 74 % 82 % 1002,8 hPa 0,0 l/m 1,8 km/h (1 Bft) S 180 0 min 9,9 C 17,3 C 1,9 km/h (1 Bft)
11.03.2018 11:00 14,7 C 2,4 C 12,7 C 17,4 C 17,4 C 2,7 C 72 % 81 % 1002,8 hPa 0,0 l/m 2,9 km/h (1 Bft) S-SW 202 0 min 9,7 C 17,4 C 2,9 km/h (1 Bft)
11.03.2018 11:05 15,0 C 2,3 C 12,9 C 17,3 C 17,3 C 2,3 C 71 % 81 % 1002,8 hPa 0,0 l/m 3,2 km/h (1 Bft) S-SO 157 0 min 9,8 C 17,3 C 6,8 km/h (2 Bft)
11.03.2018 11:10 15,1 C 2,3 C 13,1 C 17,2 C 17,2 C 2,1 C 70 % 80 % 1002,8 hPa 0,0 l/m 3,9 km/h (1 Bft) S-SO 157 0 min 9,7 C 17,2 C 7,1 km/h (2 Bft)
11.03.2018 11:15 15,2 C 2,5 C 13,1 C 17,2 C 17,2 C 2,0 C 70 % 80 % 1002,1 hPa 0,0 l/m 3,7 km/h (1 Bft) S-SO 157 0 min 9,8 C 17,2 C 8,4 km/h (2 Bft)
11.03.2018 11:20 15,5 C 2,5 C 13,3 C 17,5 C 17,5 C 2,0 C 70 % 80 % 1002,1 hPa 0,0 l/m 2,6 km/h (1 Bft) S 180 0 min 10,1 C 17,5 C 1,8 km/h (1 Bft)
11.03.2018 11:25 15,5 C 2,5 C 13,6 C 18,1 C 18,1 C 2,6 C 69 % 79 % 1002,1 hPa 0,0 l/m 2,1 km/h (1 Bft) S-SO 157 0 min 9,8 C 18,1 C 2,1 km/h (1 Bft)
11.03.2018 11:30 15,6 C 2,5 C 13,5 C 18,4 C 18,4 C 2,8 C 69 % 78 % 1002,1 hPa 0,0 l/m 1,9 km/h (1 Bft) SW 225 0 min 9,9 C 18,4 C 4,3 km/h (1 Bft)
11.03.2018 11:35 15,9 C 2,6 C 13,8 C 19,4 C 19,4 C 3,5 C 68 % 78 % 1002,2 hPa 0,0 l/m 2,4 km/h (1 Bft) SW 225 5 min 10,0 C 19,4 C 2,3 km/h (1 Bft)
11.03.2018 11:40 16,0 C 2,6 C 14,1 C 20,2 C 20,2 C 4,2 C 67 % 77 % 1002,2 hPa 0,0 l/m 3,1 km/h (1 Bft) SW 225 5 min 9,9 C 20,2 C 3,7 km/h (1 Bft)
11.03.2018 11:45 16,2 C 2,6 C 14,4 C 20,8 C 20,8 C 4,6 C 67 % 77 % 1002,2 hPa 0,0 l/m 2,7 km/h (1 Bft) O-SO 112 5 min 10,1 C 20,8 C 2,6 km/h (1 Bft)
11.03.2018 11:50 16,3 C 2,6 C 14,6 C 21,2 C 21,2 C 4,9 C 66 % 75 % 1002,2 hPa 0,0 l/m 1,8 km/h (1 Bft) S-SO 157 5 min 9,9 C 21,2 C 1,9 km/h (1 Bft)
11.03.2018 11:55 16,5 C 2,7 C 14,7 C 21,2 C 21,2 C 4,7 C 66 % 76 % 1001,8 hPa 0,0 l/m 2,3 km/h (1 Bft) W-SW 247 5 min 10,1 C 21,2 C 2,7 km/h (1 Bft)
11.03.2018 12:00 16,5 C 2,7 C 14,9 C 21,0 C 21,0 C 4,5 C 64 % 75 % 1001,8 hPa 0,0 l/m 2,6 km/h (1 Bft) S 180 5 min 9,7 C 21,0 C 0,0 km/h (0 Bft)
11.03.2018 12:05 16,7 C 2,7 C 15,2 C 21,7 C 21,7 C 5,0 C 65 % 74 % 1001,8 hPa 0,0 l/m 2,6 km/h (1 Bft) SO 135 5 min 10,1 C 21,7 C 4,3 km/h (1 Bft)
11.03.2018 12:10 17,0 C 2,7 C 15,7 C 22,0 C 22,0 C 5,0 C 64 % 74 % 1001,8 hPa 0,0 l/m 2,3 km/h (1 Bft) S-SW 202 5 min 10,1 C 22,0 C 0,0 km/h (0 Bft)
11.03.2018 12:15 17,3 C 2,8 C 16,1 C 22,4 C 22,4 C 5,1 C 64 % 73 % 1001,6 hPa 0,0 l/m 2,1 km/h (1 Bft) S-SO 157 5 min 10,4 C 22,4 C 5,1 km/h (1 Bft)
11.03.2018 12:20 17,4 C 2,8 C 16,1 C 21,7 C 21,7 C 4,3 C 62 % 70 % 1001,6 hPa 0,0 l/m 3,1 km/h (1 Bft) SO 135 5 min 10,0 C 21,7 C 4,8 km/h (1 Bft)
11.03.2018 12:25 17,5 C 2,8 C 16,5 C 21,4 C 21,4 C 3,9 C 62 % 70 % 1001,6 hPa 0,0 l/m 4,5 km/h (1 Bft) SW 225 5 min 10,1 C 21,4 C 10,3 km/h (2 Bft)
11.03.2018 12:30 17,4 C 2,8 C 16,7 C 21,1 C 21,1 C 3,7 C 62 % 69 % 1001,6 hPa 0,0 l/m 3,1 km/h (1 Bft) S 180 5 min 10,0 C 21,1 C 0,0 km/h (0 Bft)
11.03.2018 12:35 17,6 C 2,9 C 16,6 C 21,5 C 21,5 C 3,9 C 62 % 69 % 1001,4 hPa 0,0 l/m 1,9 km/h (1 Bft) SW 225 5 min 10,2 C 21,5 C 0,0 km/h (0 Bft)
11.03.2018 12:40 17,9 C 2,9 C 17,2 C 22,2 C 22,2 C 4,3 C 60 % 68 % 1001,4 hPa 0,0 l/m 1,9 km/h (1 Bft) SO 135 5 min 10,0 C 22,2 C 3,9 km/h (1 Bft)
11.03.2018 12:45 18,3 C 2,9 C 17,7 C 23,7 C 23,7 C 5,4 C 60 % 67 % 1001,4 hPa 0,0 l/m 2,1 km/h (1 Bft) SW 225 5 min 10,4 C 23,7 C 3,9 km/h (1 Bft)
11.03.2018 12:50 18,4 C 3,0 C 17,9 C 24,4 C 24,4 C 6,0 C 60 % 66 % 1001,4 hPa 0,0 l/m 2,3 km/h (1 Bft) S-SO 157 5 min 10,5 C 24,4 C 1,6 km/h (1 Bft)
11.03.2018 12:55 18,6 C 3,0 C 18,1 C 24,6 C 24,6 C 6,0 C 60 % 65 % 1000,9 hPa 0,0 l/m 2,4 km/h (1 Bft) SW 225 5 min 10,7 C 24,6 C 5,5 km/h (1 Bft)
11.03.2018 13:00 18,9 C 3,0 C 18,4 C 24,4 C 24,4 C 5,5 C 59 % 64 % 1000,9 hPa 0,0 l/m 1,9 km/h (1 Bft) SO 135 5 min 10,7 C 24,4 C 0,0 km/h (0 Bft)
11.03.2018 13:05 18,9 C 3,0 C 18,7 C 24,5 C 24,5 C 5,6 C 57 % 62 % 1000,9 hPa 0,0 l/m 2,4 km/h (1 Bft) NO 45 5 min 10,2 C 24,5 C 5,8 km/h (2 Bft)
11.03.2018 13:10 18,8 C 3,1 C 18,4 C 24,2 C 24,2 C 5,4 C 57 % 62 % 1000,9 hPa 0,0 l/m 2,7 km/h (1 Bft) NO 45 5 min 10,1 C 24,2 C 2,9 km/h (1 Bft)
11.03.2018 13:15 18,7 C 3,1 C 18,3 C 24,6 C 24,6 C 5,9 C 58 % 62 % 1000,1 hPa 0,0 l/m 2,9 km/h (1 Bft) S 180 5 min 10,3 C 24,6 C 3,1 km/h (1 Bft)
11.03.2018 13:20 19,1 C 3,1 C 18,1 C 24,8 C 24,8 C 5,7 C 57 % 63 % 1000,1 hPa 0,0 l/m 2,7 km/h (1 Bft) SW 225 5 min 10,4 C 24,8 C 5,5 km/h (1 Bft)
11.03.2018 13:25 19,2 C 3,2 C 18,1 C 24,6 C 24,6 C 5,4 C 56 % 63 % 1000,1 hPa 0,0 l/m 4,2 km/h (1 Bft) W-SW 247 5 min 10,2 C 24,6 C 3,5 km/h (1 Bft)
11.03.2018 13:30 19,2 C 3,2 C 18,0 C 24,6 C 24,6 C 5,4 C 57 % 63 % 1000,1 hPa 0,0 l/m 3,4 km/h (1 Bft) S 180 5 min 10,5 C 24,6 C 2,4 km/h (1 Bft)
11.03.2018 13:35 19,6 C 3,2 C 17,9 C 25,7 C 25,7 C 6,1 C 57 % 63 % 1000,1 hPa 0,0 l/m 1,0 km/h (0 Bft) SW 225 5 min 10,8 C 25,7 C 3,1 km/h (1 Bft)
11.03.2018 13:40 20,1 C 3,2 C 17,9 C 25,5 C 25,5 C 5,4 C 56 % 64 % 1000,1 hPa 0,0 l/m 1,6 km/h (1 Bft) S 180 5 min 11,0 C 25,5 C 6,0 km/h (2 Bft)
11.03.2018 13:45 20,0 C 3,3 C 18,0 C 25,0 C 25,0 C 5,0 C 55 % 64 % 1000,1 hPa 0,0 l/m 3,2 km/h (1 Bft) SO 135 5 min 10,7 C 25,0 C 1,8 km/h (1 Bft)
11.03.2018 13:50 20,0 C 3,3 C 18,1 C 25,0 C 25,0 C 5,0 C 55 % 64 % 1000,1 hPa 0,0 l/m 3,2 km/h (1 Bft) SW 225 5 min 10,7 C 25,0 C 4,8 km/h (1 Bft)
11.03.2018 13:55 20,0 C 3,3 C 18,1 C 24,2 C 24,2 C 4,2 C 55 % 63 % 1000,2 hPa 0,0 l/m 3,1 km/h (1 Bft) SO 135 5 min 10,7 C 24,2 C 3,2 km/h (1 Bft)
11.03.2018 14:00 20,0 C 3,4 C 18,2 C 24,2 C 24,2 C 4,2 C 55 % 63 % 1000,2 hPa 0,0 l/m 3,1 km/h (1 Bft) SW 225 5 min 10,7 C 24,2 C 0,0 km/h (0 Bft)
11.03.2018 14:05 20,2 C 3,4 C 18,4 C 24,7 C 24,7 C 4,5 C 54 % 63 % 1000,2 hPa 0,0 l/m 3,4 km/h (1 Bft) W-SW 247 5 min 10,6 C 24,7 C 1,8 km/h (1 Bft)
11.03.2018 14:10 20,1 C 3,4 C 18,4 C 24,7 C 24,7 C 4,6 C 54 % 63 % 1000,2 hPa 0,0 l/m 3,5 km/h (1 Bft) W-SW 247 5 min 10,5 C 24,7 C 3,5 km/h (1 Bft)
11.03.2018 14:15 20,1 C 3,4 C 18,5 C 24,5 C 24,5 C 4,4 C 54 % 62 % 999,7 hPa 0,0 l/m 3,2 km/h (1 Bft) SW 225 5 min 10,5 C 24,5 C 2,7 km/h (1 Bft)
11.03.2018 14:20 20,0 C 3,5 C 18,3 C 24,4 C 24,4 C 4,4 C 54 % 62 % 999,7 hPa 0,0 l/m 2,4 km/h (1 Bft) S-SO 157 5 min 10,4 C 24,4 C 3,9 km/h (1 Bft)
11.03.2018 14:25 20,5 C 3,5 C 18,3 C 24,6 C 24,6 C 4,1 C 54 % 61 % 999,7 hPa 0,0 l/m 1,8 km/h (1 Bft) W-SW 247 5 min 10,9 C 24,6 C 2,3 km/h (1 Bft)
11.03.2018 14:30 20,5 C 3,5 C 18,1 C 24,0 C 24,0 C 3,5 C 54 % 62 % 999,7 hPa 0,0 l/m 2,6 km/h (1 Bft) SW 225 5 min 10,9 C 24,0 C 5,1 km/h (1 Bft)
11.03.2018 14:35 20,0 C 3,5 C 18,1 C 22,4 C 22,4 C 2,4 C 51 % 60 % 999,4 hPa 0,0 l/m 5,0 km/h (1 Bft) S-SW 202 0 min 9,6 C 22,4 C 10,9 km/h (2 Bft)
11.03.2018 14:40 19,7 C 3,7 C 18,1 C 21,8 C 21,8 C 2,1 C 52 % 60 % 999,4 hPa 0,0 l/m 4,7 km/h (1 Bft) S-SO 157 0 min 9,6 C 21,8 C 3,4 km/h (1 Bft)
11.03.2018 14:45 19,8 C 3,7 C 18,3 C 22,2 C 22,2 C 2,4 C 53 % 60 % 999,4 hPa 0,0 l/m 2,3 km/h (1 Bft) W-SW 247 0 min 9,9 C 22,2 C 3,2 km/h (1 Bft)
11.03.2018 14:50 19,9 C 3,7 C 18,5 C 22,8 C 22,8 C 2,9 C 52 % 60 % 999,4 hPa 0,0 l/m 2,6 km/h (1 Bft) S-SO 157 0 min 9,7 C 22,8 C 9,3 km/h (2 Bft)
11.03.2018 14:55 20,0 C 3,7 C 18,4 C 22,2 C 22,2 C 2,2 C 51 % 59 % 999,4 hPa 0,0 l/m 4,2 km/h (1 Bft) O-SO 112 0 min 9,6 C 22,2 C 14,6 km/h (3 Bft)
11.03.2018 15:00 19,8 C 3,8 C 18,3 C 21,7 C 21,7 C 1,9 C 51 % 59 % 999,4 hPa 0,0 l/m 4,8 km/h (1 Bft) S 180 0 min 9,4 C 21,7 C 2,1 km/h (1 Bft)
11.03.2018 15:05 19,7 C 3,8 C 18,0 C 21,1 C 21,1 C 1,4 C 52 % 59 % 999,4 hPa 0,0 l/m 2,6 km/h (1 Bft) S 180 0 min 9,6 C 21,1 C 4,0 km/h (1 Bft)
11.03.2018 15:10 19,6 C 3,8 C 17,8 C 20,8 C 20,8 C 1,2 C 52 % 60 % 999,4 hPa 0,0 l/m 2,3 km/h (1 Bft) S-SW 202 0 min 9,5 C 20,8 C 3,9 km/h (1 Bft)
11.03.2018 15:15 19,5 C 3,8 C 17,7 C 20,5 C 20,5 C 1,0 C 53 % 61 % 999,3 hPa 0,0 l/m 2,4 km/h (1 Bft) SW 225 0 min 9,7 C 20,5 C 0,0 km/h (0 Bft)
11.03.2018 15:20 19,5 C 3,8 C 17,7 C 20,4 C 20,4 C 0,9 C 53 % 61 % 999,3 hPa 0,0 l/m 2,4 km/h (1 Bft) S-SW 202 0 min 9,7 C 20,4 C 2,3 km/h (1 Bft)
11.03.2018 15:25 19,5 C 3,9 C 17,9 C 20,4 C 20,4 C 0,9 C 53 % 61 % 999,3 hPa 0,0 l/m 1,6 km/h (1 Bft) S 180 0 min 9,7 C 20,4 C 1,6 km/h (1 Bft)
11.03.2018 15:30 19,5 C 3,9 C 17,8 C 20,4 C 20,4 C 0,9 C 53 % 61 % 999,3 hPa 0,0 l/m 1,9 km/h (1 Bft) S-SW 202 0 min 9,7 C 20,4 C 3,9 km/h (1 Bft)
11.03.2018 15:35 19,3 C 3,9 C 17,7 C 20,5 C 20,5 C 1,2 C 53 % 61 % 999,1 hPa 0,0 l/m 2,6 km/h (1 Bft) SW 225 0 min 9,5 C 20,5 C 1,9 km/h (1 Bft)
11.03.2018 15:40 19,3 C 3,9 C 17,7 C 20,5 C 20,5 C 1,2 C 54 % 62 % 999,1 hPa 0,0 l/m 1,9 km/h (1 Bft) SW 225 0 min 9,8 C 20,5 C 0,0 km/h (0 Bft)
11.03.2018 15:45 19,5 C 3,9 C 17,5 C 20,7 C 20,7 C 1,2 C 54 % 63 % 999,1 hPa 0,0 l/m 0,8 km/h (0 Bft) SW 225 0 min 9,9 C 20,7 C 3,1 km/h (1 Bft)
11.03.2018 15:50 19,5 C 4,0 C 17,5 C 21,0 C 21,0 C 1,5 C 54 % 63 % 999,1 hPa 0,0 l/m 1,3 km/h (1 Bft) S-SW 202 0 min 9,9 C 21,0 C 2,9 km/h (1 Bft)
11.03.2018 15:55 19,6 C 4,0 C 17,7 C 21,7 C 21,7 C 2,1 C 54 % 63 % 999,0 hPa 0,0 l/m 2,6 km/h (1 Bft) W-SW 247 0 min 10,0 C 21,7 C 4,5 km/h (1 Bft)
11.03.2018 16:00 19,6 C 4,0 C 17,5 C 21,4 C 21,4 C 1,8 C 53 % 62 % 999,0 hPa 0,0 l/m 2,6 km/h (1 Bft) S 180 0 min 9,8 C 21,4 C 2,7 km/h (1 Bft)
11.03.2018 16:05 19,4 C 4,0 C 17,3 C 20,5 C 20,5 C 1,1 C 53 % 62 % 999,0 hPa 0,0 l/m 2,7 km/h (1 Bft) S-SW 202 0 min 9,6 C 20,5 C 3,7 km/h (1 Bft)
11.03.2018 16:10 19,2 C 4,0 C 17,0 C 19,9 C 19,9 C 0,7 C 53 % 62 % 999,0 hPa 0,0 l/m 3,2 km/h (1 Bft) S-SW 202 0 min 9,4 C 19,9 C 8,2 km/h (2 Bft)
11.03.2018 16:15 19,1 C 4,2 C 16,9 C 19,2 C 19,2 C 0,1 C 53 % 62 % 998,9 hPa 0,0 l/m 2,9 km/h (1 Bft) SW 225 0 min 9,3 C 19,2 C 2,3 km/h (1 Bft)
11.03.2018 16:20 18,7 C 4,2 C 16,5 C 18,9 C 18,9 C 0,2 C 54 % 63 % 998,9 hPa 0,0 l/m 1,8 km/h (1 Bft) S 180 0 min 9,2 C 18,9 C 0,0 km/h (0 Bft)
11.03.2018 16:25 18,6 C 4,2 C 16,3 C 18,6 C 18,5 C 0,0 C 54 % 64 % 998,9 hPa 0,0 l/m 0,2 km/h (0 Bft) W-SW 247 0 min 9,1 C 18,5 C 0,0 km/h (0 Bft)
11.03.2018 16:30 18,4 C 4,2 C 16,1 C 18,4 C 18,3 C 0,0 C 54 % 64 % 998,9 hPa 0,0 l/m 0,0 km/h (0 Bft) W-SW 247 0 min 8,9 C 18,3 C 0,0 km/h (0 Bft)
11.03.2018 16:35 18,3 C 4,2 C 15,8 C 18,2 C 18,0 C 0,0 C 55 % 65 % 998,5 hPa 0,0 l/m 0,0 km/h (0 Bft) W-SW 247 0 min 9,1 C 18,0 C 0,0 km/h (0 Bft)
11.03.2018 16:40 18,2 C 4,3 C 15,5 C 18,1 C 17,9 C 0,0 C 55 % 65 % 998,5 hPa 0,0 l/m 0,0 km/h (0 Bft) W-SW 247 0 min 9,0 C 17,9 C 0,0 km/h (0 Bft)
11.03.2018 16:45 17,9 C 4,3 C 15,3 C 17,8 C 17,7 C 0,0 C 56 % 67 % 998,5 hPa 0,0 l/m 0,3 km/h (0 Bft) SO 135 0 min 9,0 C 17,7 C 0,0 km/h (0 Bft)
11.03.2018 16:50 17,7 C 4,3 C 15,4 C 17,6 C 17,5 C 0,0 C 57 % 68 % 998,5 hPa 0,0 l/m 0,5 km/h (0 Bft) SO 135 0 min 9,1 C 17,5 C 2,4 km/h (1 Bft)
11.03.2018 16:55 17,6 C 4,3 C 15,6 C 17,6 C 17,5 C 0,0 C 57 % 68 % 998,7 hPa 0,0 l/m 0,5 km/h (0 Bft) O-SO 112 0 min 9,0 C 17,5 C 0,0 km/h (0 Bft)
11.03.2018 17:00 17,5 C 4,3 C 15,9 C 17,5 C 17,5 C 0,0 C 58 % 67 % 998,7 hPa 0,0 l/m 0,8 km/h (0 Bft) O-SO 112 0 min 9,1 C 17,5 C 2,9 km/h (1 Bft)
11.03.2018 17:05 17,2 C 4,3 C 15,6 C 17,5 C 17,5 C 0,3 C 59 % 67 % 998,7 hPa 0,0 l/m 0,5 km/h (0 Bft) O-SO 112 0 min 9,1 C 17,5 C 0,0 km/h (0 Bft)
11.03.2018 17:10 17,2 C 4,3 C 15,5 C 17,5 C 17,5 C 0,3 C 59 % 67 % 998,7 hPa 0,0 l/m 0,8 km/h (0 Bft) O-SO 112 0 min 9,1 C 17,5 C 0,0 km/h (0 Bft)
11.03.2018 17:15 17,0 C 4,3 C 15,2 C 17,2 C 17,2 C 0,2 C 59 % 67 % 998,8 hPa 0,0 l/m 0,6 km/h (0 Bft) O-SO 112 0 min 8,9 C 17,2 C 0,0 km/h (0 Bft)
11.03.2018 17:20 16,9 C 4,3 C 14,7 C 16,9 C 16,9 C 0,0 C 59 % 68 % 998,8 hPa 0,0 l/m 0,3 km/h (0 Bft) O-SO 112 0 min 8,8 C 16,9 C 2,1 km/h (1 Bft)
11.03.2018 17:25 16,7 C 4,5 C 14,5 C 16,7 C 16,6 C 0,0 C 60 % 69 % 998,8 hPa 0,0 l/m 0,8 km/h (0 Bft) O-SO 112 0 min 8,9 C 16,6 C 3,9 km/h (1 Bft)
11.03.2018 17:30 16,5 C 4,5 C 14,4 C 16,5 C 16,4 C 0,0 C 61 % 70 % 998,8 hPa 0,0 l/m 1,9 km/h (1 Bft) NO 45 0 min 9,0 C 16,4 C 1,8 km/h (1 Bft)
11.03.2018 17:35 16,4 C 4,5 C 14,2 C 16,3 C 16,0 C 0,0 C 61 % 70 % 998,7 hPa 0,0 l/m 1,6 km/h (1 Bft) O-NO 67 0 min 8,9 C 16,0 C 0,0 km/h (0 Bft)
11.03.2018 17:40 16,1 C 4,5 C 13,7 C 16,0 C 15,7 C 0,0 C 61 % 70 % 998,7 hPa 0,0 l/m 0,8 km/h (0 Bft) O-NO 67 0 min 8,6 C 15,7 C 1,8 km/h (1 Bft)
11.03.2018 17:45 15,9 C 4,5 C 13,6 C 15,7 C 15,3 C 0,0 C 61 % 71 % 998,7 hPa 0,0 l/m 0,6 km/h (0 Bft) NO 45 0 min 8,4 C 15,3 C 2,6 km/h (1 Bft)
11.03.2018 17:50 15,7 C 4,5 C 13,5 C 15,5 C 15,1 C 0,0 C 61 % 71 % 998,7 hPa 0,0 l/m 1,0 km/h (0 Bft) O-NO 67 0 min 8,2 C 15,1 C 3,1 km/h (1 Bft)
11.03.2018 17:55 15,6 C 4,5 C 13,6 C 15,3 C 14,8 C 0,0 C 61 % 71 % 999,1 hPa 0,0 l/m 1,4 km/h (1 Bft) O-NO 67 0 min 8,1 C 14,8 C 2,4 km/h (1 Bft)
11.03.2018 18:00 15,5 C 4,5 C 13,6 C 15,2 C 14,6 C 0,0 C 61 % 71 % 999,1 hPa 0,0 l/m 1,6 km/h (1 Bft) O-SO 112 0 min 8,0 C 14,6 C 2,1 km/h (1 Bft)
11.03.2018 18:05 15,2 C 4,5 C 13,6 C 14,9 C 14,4 C 0,0 C 62 % 70 % 999,1 hPa 0,0 l/m 1,1 km/h (1 Bft) O 90 0 min 8,0 C 14,4 C 1,8 km/h (1 Bft)
11.03.2018 18:10 15,0 C 4,5 C 13,3 C 14,7 C 14,1 C 0,0 C 62 % 70 % 999,1 hPa 0,0 l/m 1,1 km/h (1 Bft) O-NO 67 0 min 7,8 C 14,1 C 2,9 km/h (1 Bft)
11.03.2018 18:15 14,9 C 4,5 C 13,3 C 14,5 C 13,8 C 0,0 C 62 % 71 % 998,6 hPa 0,0 l/m 1,3 km/h (1 Bft) O-NO 67 0 min 7,7 C 13,8 C 2,4 km/h (1 Bft)
11.03.2018 18:20 14,7 C 4,5 C 13,0 C 14,4 C 13,7 C 0,0 C 63 % 71 % 998,6 hPa 0,0 l/m 1,4 km/h (1 Bft) O-SO 112 0 min 7,7 C 13,7 C 1,9 km/h (1 Bft)
11.03.2018 18:25 14,5 C 4,5 C 12,7 C 14,1 C 13,4 C 0,0 C 64 % 72 % 998,6 hPa 0,0 l/m 1,6 km/h (1 Bft) O-NO 67 0 min 7,8 C 13,4 C 2,9 km/h (1 Bft)
11.03.2018 18:30 14,5 C 4,5 C 12,4 C 14,1 C 13,3 C 0,0 C 64 % 72 % 998,6 hPa 0,0 l/m 1,8 km/h (1 Bft) O-SO 112 0 min 7,8 C 13,3 C 3,1 km/h (1 Bft)
11.03.2018 18:35 14,3 C 4,5 C 12,3 C 13,9 C 13,0 C 0,0 C 64 % 73 % 998,5 hPa 0,0 l/m 1,6 km/h (1 Bft) O-NO 67 0 min 7,6 C 13,0 C 1,9 km/h (1 Bft)
11.03.2018 18:40 14,0 C 4,5 C 12,2 C 13,6 C 12,8 C 0,0 C 65 % 74 % 998,5 hPa 0,0 l/m 1,1 km/h (1 Bft) O-SO 112 0 min 7,5 C 12,8 C 0,0 km/h (0 Bft)
11.03.2018 18:45 13,9 C 4,5 C 12,0 C 13,4 C 12,5 C 0,0 C 65 % 74 % 998,5 hPa 0,0 l/m 0,6 km/h (0 Bft) O-NO 67 0 min 7,4 C 12,5 C 2,7 km/h (1 Bft)
11.03.2018 18:50 13,7 C 4,5 C 11,8 C 13,3 C 12,4 C 0,0 C 66 % 74 % 998,5 hPa 0,0 l/m 0,5 km/h (0 Bft) O-SO 112 0 min 7,5 C 12,4 C 1,8 km/h (1 Bft)
11.03.2018 18:55 13,5 C 4,6 C 11,5 C 13,0 C 12,0 C 0,0 C 66 % 75 % 998,7 hPa 0,0 l/m 0,5 km/h (0 Bft) O-NO 67 0 min 7,3 C 12,0 C 0,0 km/h (0 Bft)
11.03.2018 19:00 13,4 C 4,6 C 11,3 C 12,9 C 12,0 C 0,0 C 67 % 76 % 998,7 hPa 0,0 l/m 0,6 km/h (0 Bft) S 180 0 min 7,4 C 12,0 C 0,0 km/h (0 Bft)
11.03.2018 19:05 13,2 C 4,6 C 11,1 C 12,7 C 11,8 C 0,0 C 67 % 76 % 998,7 hPa 0,0 l/m 0,8 km/h (0 Bft) SO 135 0 min 7,2 C 11,8 C 0,0 km/h (0 Bft)
11.03.2018 19:10 13,1 C 4,6 C 11,1 C 12,6 C 11,7 C 0,0 C 68 % 77 % 998,7 hPa 0,0 l/m 0,6 km/h (0 Bft) SO 135 0 min 7,3 C 11,7 C 1,6 km/h (1 Bft)
11.03.2018 19:15 13,0 C 4,6 C 11,0 C 12,5 C 11,6 C 0,0 C 68 % 77 % 998,8 hPa 0,0 l/m 0,3 km/h (0 Bft) SO 135 0 min 7,2 C 11,6 C 0,0 km/h (0 Bft)
11.03.2018 19:20 12,8 C 4,6 C 10,7 C 12,3 C 11,4 C 0,0 C 69 % 77 % 998,8 hPa 0,0 l/m 0,3 km/h (0 Bft) S 180 0 min 7,3 C 11,4 C 0,0 km/h (0 Bft)
11.03.2018 19:25 12,7 C 4,7 C 10,5 C 12,2 C 11,2 C 0,0 C 69 % 78 % 998,8 hPa 0,0 l/m 0,3 km/h (0 Bft) S-SW 202 0 min 7,2 C 11,2 C 0,0 km/h (0 Bft)
11.03.2018 19:30 12,7 C 4,7 C 10,5 C 12,2 C 11,2 C 0,0 C 69 % 79 % 998,8 hPa 0,0 l/m 0,6 km/h (0 Bft) SO 135 0 min 7,2 C 11,2 C 2,4 km/h (1 Bft)
11.03.2018 19:35 12,6 C 4,7 C 10,3 C 12,1 C 11,2 C 0,0 C 70 % 79 % 998,8 hPa 0,0 l/m 0,8 km/h (0 Bft) S 180 0 min 7,3 C 11,2 C 0,0 km/h (0 Bft)
11.03.2018 19:40 12,4 C 4,7 C 10,0 C 11,9 C 10,9 C 0,0 C 70 % 79 % 998,8 hPa 0,0 l/m 0,6 km/h (0 Bft) W 270 0 min 7,1 C 10,9 C 6,1 km/h (2 Bft)
11.03.2018 19:45 12,2 C 4,7 C 10,0 C 11,7 C 10,8 C 0,0 C 70 % 79 % 998,8 hPa 0,0 l/m 0,5 km/h (0 Bft) W 270 0 min 6,9 C 10,8 C 0,0 km/h (0 Bft)
11.03.2018 19:50 12,1 C 4,7 C 9,9 C 11,7 C 10,8 C 0,0 C 71 % 80 % 998,8 hPa 0,0 l/m 0,6 km/h (0 Bft) W 270 0 min 7,0 C 10,8 C 0,0 km/h (0 Bft)
11.03.2018 19:55 12,0 C 4,7 C 9,6 C 11,5 C 10,6 C 0,0 C 71 % 79 % 998,8 hPa 0,0 l/m 0,8 km/h (0 Bft) W 270 0 min 6,9 C 10,6 C 0,0 km/h (0 Bft)
11.03.2018 20:00 11,7 C 4,7 C 9,3 C 11,3 C 10,5 C 0,0 C 71 % 80 % 998,8 hPa 0,0 l/m 0,5 km/h (0 Bft) W 270 0 min 6,6 C 10,5 C 0,0 km/h (0 Bft)
11.03.2018 20:05 11,5 C 4,7 C 8,8 C 11,0 C 10,1 C 0,0 C 71 % 80 % 998,8 hPa 0,0 l/m 0,0 km/h (0 Bft) W 270 0 min 6,4 C 10,1 C 0,0 km/h (0 Bft)
11.03.2018 20:10 11,2 C 4,7 C 8,7 C 10,8 C 10,0 C 0,0 C 72 % 81 % 998,8 hPa 0,0 l/m 0,2 km/h (0 Bft) W-SW 247 0 min 6,3 C 10,0 C 0,0 km/h (0 Bft)
11.03.2018 20:15 11,3 C 4,7 C 8,7 C 10,8 C 9,9 C 0,0 C 73 % 81 % 998,4 hPa 0,0 l/m 0,2 km/h (0 Bft) W-SW 247 0 min 6,6 C 9,9 C 0,0 km/h (0 Bft)
11.03.2018 20:20 11,1 C 4,7 C 8,4 C 10,7 C 9,8 C 0,0 C 73 % 82 % 998,4 hPa 0,0 l/m 0,5 km/h (0 Bft) W 270 0 min 6,4 C 9,8 C 2,4 km/h (1 Bft)
11.03.2018 20:25 11,1 C 4,7 C 8,7 C 10,7 C 10,0 C 0,0 C 74 % 83 % 998,4 hPa 0,0 l/m 0,5 km/h (0 Bft) S 180 0 min 6,6 C 10,0 C 1,6 km/h (1 Bft)
11.03.2018 20:30 11,2 C 4,7 C 8,7 C 10,8 C 10,0 C 0,0 C 75 % 83 % 998,4 hPa 0,0 l/m 1,0 km/h (0 Bft) W 270 0 min 6,9 C 10,0 C 1,6 km/h (1 Bft)
11.03.2018 20:35 11,2 C 4,7 C 8,7 C 10,8 C 10,1 C 0,0 C 75 % 83 % 998,2 hPa 0,0 l/m 0,8 km/h (0 Bft) W 270 0 min 6,9 C 10,1 C 0,0 km/h (0 Bft)
11.03.2018 20:40 11,1 C 4,7 C 8,7 C 10,8 C 10,1 C 0,0 C 74 % 83 % 998,2 hPa 0,0 l/m 0,3 km/h (0 Bft) W 270 0 min 6,6 C 10,1 C 0,0 km/h (0 Bft)
11.03.2018 20:45 10,9 C 4,7 C 8,4 C 10,6 C 9,9 C 0,0 C 75 % 84 % 998,2 hPa 0,0 l/m 0,2 km/h (0 Bft) NW 315 0 min 6,6 C 9,9 C 0,0 km/h (0 Bft)
11.03.2018 20:50 10,9 C 4,7 C 8,4 C 10,5 C 9,8 C 0,0 C 74 % 84 % 998,2 hPa 0,0 l/m 0,2 km/h (0 Bft) NW 315 0 min 6,5 C 9,8 C 0,0 km/h (0 Bft)
11.03.2018 20:55 10,8 C 4,7 C 8,2 C 10,4 C 9,6 C 0,0 C 74 % 84 % 998,1 hPa 0,0 l/m 0,0 km/h (0 Bft) W-SW 247 0 min 6,4 C 9,6 C 0,0 km/h (0 Bft)
11.03.2018 21:00 10,5 C 4,7 C 8,0 C 10,2 C 9,5 C 0,0 C 75 % 84 % 998,1 hPa 0,0 l/m 0,0 km/h (0 Bft) W-SW 247 0 min 6,3 C 9,5 C 0,0 km/h (0 Bft)
11.03.2018 21:05 10,3 C 4,7 C 7,8 C 10,0 C 9,5 C 0,0 C 75 % 84 % 998,1 hPa 0,0 l/m 0,0 km/h (0 Bft) W 270 0 min 6,1 C 9,5 C 0,0 km/h (0 Bft)
11.03.2018 21:10 10,3 C 4,7 C 7,8 C 10,0 C 9,5 C 0,0 C 75 % 84 % 998,1 hPa 0,0 l/m 0,0 km/h (0 Bft) W 270 0 min 6,1 C 9,5 C 0,0 km/h (0 Bft)
11.03.2018 21:15 10,0 C 4,7 C 7,7 C 9,8 C 9,3 C 0,0 C 75 % 85 % 997,9 hPa 0,0 l/m 0,0 km/h (0 Bft) W 270 0 min 5,8 C 9,3 C 0,0 km/h (0 Bft)
11.03.2018 21:20 10,0 C 4,7 C 7,7 C 9,8 C 9,3 C 0,0 C 76 % 85 % 997,9 hPa 0,0 l/m 0,0 km/h (0 Bft) W 270 0 min 6,0 C 9,3 C 0,0 km/h (0 Bft)
11.03.2018 21:25 9,9 C 4,7 C 7,7 C 9,7 C 9,3 C 0,0 C 76 % 85 % 997,9 hPa 0,0 l/m 0,0 km/h (0 Bft) SW 225 0 min 5,9 C 9,3 C 0,0 km/h (0 Bft)
11.03.2018 21:30 9,8 C 4,7 C 7,7 C 9,6 C 9,3 C 0,0 C 77 % 85 % 997,9 hPa 0,0 l/m 0,0 km/h (0 Bft) SW 225 0 min 6,0 C 9,3 C 0,0 km/h (0 Bft)
11.03.2018 21:35 9,8 C 4,7 C 7,7 C 9,6 C 9,3 C 0,0 C 77 % 85 % 998,0 hPa 0,0 l/m 0,0 km/h (0 Bft) N 360 0 min 6,0 C 9,3 C 0,0 km/h (0 Bft)
11.03.2018 21:40 9,7 C 4,7 C 7,7 C 9,6 C 9,4 C 0,0 C 78 % 86 % 998,0 hPa 0,0 l/m 0,0 km/h (0 Bft) N 360 0 min 6,1 C 9,4 C 0,0 km/h (0 Bft)
11.03.2018 21:45 9,7 C 4,7 C 7,7 C 9,6 C 9,4 C 0,0 C 78 % 86 % 998,0 hPa 0,0 l/m 0,0 km/h (0 Bft) NW 315 0 min 6,1 C 9,4 C 0,0 km/h (0 Bft)
11.03.2018 21:50 9,7 C 4,7 C 7,8 C 9,6 C 9,3 C 0,0 C 78 % 86 % 998,0 hPa 0,0 l/m 0,0 km/h (0 Bft) W-SW 247 0 min 6,1 C 9,3 C 0,0 km/h (0 Bft)
11.03.2018 21:55 9,7 C 4,7 C 7,7 C 9,6 C 9,4 C 0,0 C 78 % 86 % 997,2 hPa 0,0 l/m 0,0 km/h (0 Bft) N 360 0 min 6,1 C 9,4 C 0,0 km/h (0 Bft)
11.03.2018 22:00 9,9 C 4,7 C 7,9 C 9,8 C 9,6 C 0,0 C 79 % 86 % 997,2 hPa 0,0 l/m 0,6 km/h (0 Bft) O-SO 112 0 min 6,4 C 9,6 C 0,0 km/h (0 Bft)
11.03.2018 22:05 10,1 C 4,7 C 8,1 C 10,0 C 9,7 C 0,0 C 79 % 86 % 997,2 hPa 0,0 l/m 0,8 km/h (0 Bft) S-SW 202 0 min 6,6 C 9,7 C 0,0 km/h (0 Bft)
11.03.2018 22:10 10,2 C 4,7 C 8,1 C 10,0 C 9,7 C 0,0 C 79 % 86 % 997,2 hPa 0,0 l/m 0,3 km/h (0 Bft) W-SW 247 0 min 6,7 C 9,7 C 0,0 km/h (0 Bft)
11.03.2018 22:15 10,2 C 4,7 C 8,0 C 10,0 C 9,6 C 0,0 C 78 % 86 % 997,4 hPa 0,0 l/m 0,2 km/h (0 Bft) W 270 0 min 6,5 C 9,6 C 0,0 km/h (0 Bft)
11.03.2018 22:20 10,1 C 4,7 C 8,0 C 9,9 C 9,5 C 0,0 C 78 % 86 % 997,4 hPa 0,0 l/m 0,0 km/h (0 Bft) W-SW 247 0 min 6,4 C 9,5 C 0,0 km/h (0 Bft)
11.03.2018 22:25 10,3 C 4,7 C 8,1 C 10,1 C 9,6 C 0,0 C 78 % 86 % 997,4 hPa 0,0 l/m 0,3 km/h (0 Bft) W 270 0 min 6,6 C 9,6 C 0,0 km/h (0 Bft)
11.03.2018 22:30 10,3 C 4,7 C 8,1 C 10,0 C 9,5 C 0,0 C 78 % 86 % 997,4 hPa 0,0 l/m 0,6 km/h (0 Bft) W-NW 292 0 min 6,6 C 9,5 C 2,4 km/h (1 Bft)
11.03.2018 22:35 10,4 C 4,7 C 8,2 C 10,2 C 9,8 C 0,0 C 78 % 86 % 997,2 hPa 0,0 l/m 0,8 km/h (0 Bft) W-NW 292 0 min 6,7 C 9,8 C 0,0 km/h (0 Bft)
11.03.2018 22:40 10,5 C 4,7 C 8,3 C 10,3 C 9,8 C 0,0 C 77 % 87 % 997,2 hPa 0,0 l/m 0,8 km/h (0 Bft) W-SW 247 0 min 6,6 C 9,8 C 0,0 km/h (0 Bft)
11.03.2018 22:45 10,5 C 4,7 C 8,3 C 10,3 C 9,8 C 0,0 C 77 % 86 % 997,2 hPa 0,0 l/m 0,2 km/h (0 Bft) SW 225 0 min 6,6 C 9,8 C 0,0 km/h (0 Bft)
11.03.2018 22:50 10,7 C 4,7 C 8,3 C 10,4 C 9,8 C 0,0 C 77 % 86 % 997,2 hPa 0,0 l/m 0,3 km/h (0 Bft) NW 315 0 min 6,8 C 9,8 C 0,0 km/h (0 Bft)
11.03.2018 22:55 10,7 C 4,7 C 8,4 C 10,4 C 9,8 C 0,0 C 77 % 86 % 997,2 hPa 0,0 l/m 0,5 km/h (0 Bft) N 360 0 min 6,8 C 9,8 C 0,0 km/h (0 Bft)
11.03.2018 23:00 10,7 C 4,7 C 8,3 C 10,4 C 9,8 C 0,0 C 76 % 85 % 997,2 hPa 0,0 l/m 0,5 km/h (0 Bft) NW 315 0 min 6,6 C 9,8 C 0,0 km/h (0 Bft)
11.03.2018 23:05 10,6 C 4,7 C 8,5 C 10,3 C 9,8 C 0,0 C 76 % 87 % 997,2 hPa 0,0 l/m 1,4 km/h (1 Bft) S 180 0 min 6,5 C 9,8 C 2,3 km/h (1 Bft)
11.03.2018 23:10 10,7 C 4,7 C 8,5 C 10,4 C 9,9 C 0,0 C 76 % 85 % 997,2 hPa 0,0 l/m 1,9 km/h (1 Bft) SW 225 0 min 6,6 C 9,9 C 1,8 km/h (1 Bft)
11.03.2018 23:15 10,7 C 4,7 C 8,3 C 10,4 C 9,8 C 0,0 C 76 % 85 % 997,1 hPa 0,0 l/m 1,6 km/h (1 Bft) W 270 0 min 6,6 C 9,8 C 0,0 km/h (0 Bft)
11.03.2018 23:20 10,5 C 4,7 C 8,3 C 10,2 C 9,7 C 0,0 C 75 % 85 % 997,1 hPa 0,0 l/m 0,8 km/h (0 Bft) W-SW 247 0 min 6,3 C 9,7 C 1,8 km/h (1 Bft)
11.03.2018 23:25 10,3 C 4,7 C 8,1 C 10,0 C 9,5 C 0,0 C 75 % 85 % 997,1 hPa 0,0 l/m 0,5 km/h (0 Bft) SW 225 0 min 6,1 C 9,5 C 2,3 km/h (1 Bft)
11.03.2018 23:30 10,3 C 4,7 C 8,0 C 10,0 C 9,4 C 0,0 C 76 % 85 % 997,1 hPa 0,0 l/m 0,8 km/h (0 Bft) SO 135 0 min 6,3 C 9,4 C 0,0 km/h (0 Bft)
11.03.2018 23:35 10,4 C 4,7 C 8,3 C 10,1 C 9,6 C 0,0 C 76 % 86 % 997,6 hPa 0,0 l/m 1,4 km/h (1 Bft) S-SO 157 0 min 6,4 C 9,6 C 0,0 km/h (0 Bft)
11.03.2018 23:40 10,3 C 4,7 C 8,3 C 10,0 C 9,5 C 0,0 C 76 % 85 % 997,6 hPa 0,0 l/m 1,1 km/h (1 Bft) SO 135 0 min 6,3 C 9,5 C 0,0 km/h (0 Bft)
11.03.2018 23:45 10,4 C 4,7 C 8,5 C 10,1 C 9,6 C 0,0 C 76 % 85 % 997,6 hPa 0,0 l/m 1,3 km/h (1 Bft) O-SO 112 0 min 6,4 C 9,6 C 2,3 km/h (1 Bft)
11.03.2018 23:50 10,5 C 4,7 C 8,7 C 10,2 C 9,7 C 0,0 C 75 % 85 % 997,6 hPa 0,0 l/m 1,3 km/h (1 Bft) O 90 0 min 6,3 C 9,7 C 0,0 km/h (0 Bft)
11.03.2018 23:55 10,3 C 4,7 C 8,5 C 10,0 C 9,5 C 0,0 C 75 % 84 % 997,1 hPa 0,0 l/m 0,3 km/h (0 Bft) O 90 0 min 6,1 C 9,5 C 0,0 km/h (0 Bft)
_ Min-Zeit 06:25 08:50 05:20 05:30 05:35 00:00 14:35 14:55 23:15 - 00:50 - - - 06:25 05:35 00:05
Minimum _ 2,2 C 2,1 C 1,4 C 2,2 C 1,7 C 0,0 C 51 % 59 % 997,1 hPa - 0,0 km/h (0 Bft) - - - 0,1 C 1,7 C 0,0 km/h (0 Bft)
_ Max-Zeit 14:25 19:25 13:05 13:35 13:35 09:35 08:10 03:25 00:00 00:00 14:35 - - 06:45 13:40 13:35 14:55
Maximum _ 20,5 C 4,7 C 18,7 C 25,7 C 25,7 C 8,6 C 88 % 90 % 1006,3 hPa 0,0 l/m 5,0 km/h
S-SW (1 Bft)
- - 5 min 11,0 C 25,7 C 14,6 km/h
O-SO (3 Bft)
Durchschnitt _ 10,8 C 3,3 C 9,7 C 12,2 C 11,9 C 1,5 C 74 % 80 % 1001,5 hPa #0,0 l/m 0,9 km/h (0 Bft) SW - #6:40 h 6,1 C 11,9 C 1,3 km/h (1 Bft)
2018 www.wetterstation-wechselburg.de